Marianna, FL

3:23 PM CDT on March 29, 2017 (GMT -0500)
Marianna Municipal

Weather History for KMAI - November, 2013

Change the Weather History Date:

Wednesday, November 6, 2013

  Actual Average Record
Temperature  
Mean Temperature 68 °F 62 °F  
Max Temperature 78 °F 74 °F 88 °F (2015)
Min Temperature 57 °F 51 °F 37 °F (2010)
Degree Days  
Heating Degree Days 0    
Month to date heating degree days 16  
Since 1 July heating degree days 50  
Cooling Degree Days 3    
Month to date cooling degree days 9  
Year to date cooling degree days 2476  
Growing Degree Days 17 (Base 50)    
Moisture  
Dew Point 60 °F    
Average Humidity 74    
Maximum Humidity 87    
Minimum Humidity 60    
Precipitation  
Precipitation 0.00 in 0.12 in 0.45 in (2002)
Month to date precipitation 1.04 0.67  
Year to date precipitation 55.99 46.22  
Sea Level Pressure  
Sea Level Pressure 30.15 in    
Wind  
Wind Speed 6 mph (ENE)    
Max Wind Speed 14 mph    
Max Gust Speed 16 mph    
Visibility 10 miles    
Events      
T = Trace of Precipitation, MM = Missing Value Source: NWS Daily Summary

Daily Weather History Graph

Daily Weather History Graph

Search for Another Location

Airport or City:

Trip Planner

Search our weather history database for the weather conditions in past years. The results will help you decide how hot, cold, wet, or windy it might be!

Date:

Astronomy

Nov. 06, 2013 Rise Set
Actual Time 5:59 AM CST 4:48 PM CST
Civil Twilight 5:34 AM CST 5:13 PM CST
Nautical Twilight 5:06 AM CST 5:42 PM CST
Astronomical Twilight 4:37 AM CST 6:10 PM CST
Moon 9:08 AM CST (11/6) 7:56 PM CST (11/6)
Length of Visible Light 11h 38m
Length of Day
10h 48m
Waxing Crescent, 14% of the Moon is Illuminated
Nov 6
Waxing Crescent
Nov 9
First Quarter
Nov 17
Full
Nov 25
Last Quarter
Dec 2
New

Hourly Weather History & Observations

Time (CST) Temp. Dew Point Humidity Pressure Visibility Wind Dir Wind Speed Gust Speed Precip Events Conditions
12:53 AM 57.9 °F 50.0 °F 75% 30.19 in 10.0 mi NE 5.8 mph - N/A   Mostly Cloudy
1:14 AM 57.2 °F 51.8 °F 82% 30.19 in 10.0 mi ENE 5.8 mph - N/A   Mostly Cloudy
1:53 AM 60.1 °F 52.0 °F 75% 30.18 in 10.0 mi ENE 8.1 mph - N/A   Overcast
2:53 AM 62.1 °F 54.0 °F 75% 30.18 in 10.0 mi ENE 6.9 mph - N/A   Overcast
3:05 AM 62.6 °F 55.4 °F 77% 30.18 in 10.0 mi ENE 9.2 mph - N/A   Overcast
3:53 AM 62.1 °F 55.9 °F 80% 30.18 in 10.0 mi ENE 9.2 mph - N/A   Overcast
4:53 AM 63.0 °F 57.0 °F 81% 30.17 in 10.0 mi ENE 6.9 mph - N/A   Overcast
5:53 AM 63.0 °F 57.0 °F 81% 30.18 in 10.0 mi ENE 8.1 mph - N/A   Overcast
6:53 AM 63.0 °F 57.9 °F 84% 30.19 in 10.0 mi ENE 5.8 mph - N/A   Overcast
7:53 AM 64.9 °F 59.0 °F 81% 30.20 in 10.0 mi ENE 10.4 mph - N/A   Overcast
8:53 AM 66.0 °F 60.1 °F 81% 30.21 in 10.0 mi East 6.9 mph - N/A   Overcast
9:51 AM 69.8 °F 60.8 °F 73% 30.20 in 10.0 mi East 10.4 mph - N/A   Overcast
9:53 AM 69.1 °F 61.0 °F 75% 30.20 in 10.0 mi ENE 12.7 mph - N/A   Overcast
10:03 AM 69.8 °F 60.8 °F 73% 30.20 in 10.0 mi ENE 10.4 mph - N/A   Overcast
10:46 AM 73.4 °F 62.6 °F 69% 30.18 in 10.0 mi ENE 11.5 mph - N/A   Overcast
10:53 AM 72.0 °F 62.1 °F 71% 30.18 in 10.0 mi NE 10.4 mph - N/A   Mostly Cloudy
11:00 AM 75.2 °F 62.6 °F 65% 30.18 in 10.0 mi ENE 8.1 mph - N/A   Mostly Cloudy
11:07 AM 73.4 °F 62.6 °F 69% 30.17 in 10.0 mi East 11.5 mph - N/A   Mostly Cloudy
11:17 AM 73.4 °F 62.6 °F 69% 30.17 in 10.0 mi Variable 6.9 mph - N/A   Mostly Cloudy
11:53 AM 73.0 °F 62.1 °F 68% 30.16 in 10.0 mi East 3.5 mph - N/A   Mostly Cloudy
12:53 PM 75.9 °F 62.1 °F 62% 30.13 in 10.0 mi Variable 6.9 mph - N/A   Scattered Clouds
1:09 PM 75.2 °F 62.6 °F 65% 30.13 in 10.0 mi East 5.8 mph - N/A   Mostly Cloudy
1:20 PM 75.2 °F 62.6 °F 65% 30.12 in 10.0 mi Variable 3.5 mph - N/A   Scattered Clouds
1:53 PM 77.0 °F 63.0 °F 62% 30.11 in 10.0 mi East 5.8 mph - N/A   Scattered Clouds
2:03 PM 75.2 °F 62.6 °F 65% 30.12 in 10.0 mi Variable 4.6 mph - N/A   Mostly Cloudy
2:17 PM 75.2 °F 62.6 °F 65% 30.11 in 10.0 mi East 4.6 mph - N/A   Mostly Cloudy
2:53 PM 75.9 °F 63.0 °F 64% 30.11 in 10.0 mi Calm Calm - N/A   Scattered Clouds
3:53 PM 75.9 °F 63.0 °F 64% 30.10 in 10.0 mi NE 9.2 mph - N/A   Partly Cloudy
4:53 PM 71.1 °F 63.0 °F 75% 30.10 in 10.0 mi ENE 3.5 mph - N/A   Clear
5:53 PM 69.1 °F 63.0 °F 81% 30.11 in 10.0 mi NE 3.5 mph - N/A   Clear
6:53 PM 68.0 °F 63.0 °F 84% 30.12 in 10.0 mi East 4.6 mph - N/A   Clear
7:53 PM 66.0 °F 62.1 °F 87% 30.12 in 10.0 mi NE 4.6 mph - N/A   Clear
8:53 PM 66.0 °F 62.1 °F 87% 30.11 in 10.0 mi ENE 3.5 mph - N/A   Clear
9:53 PM 66.0 °F 62.1 °F 87% 30.12 in 10.0 mi Calm Calm - N/A   Clear
10:53 PM 64.9 °F 61.0 °F 87% 30.10 in 10.0 mi Calm Calm - N/A   Clear
11:53 PM 64.0 °F 61.0 °F 90% 30.08 in 10.0 mi Calm Calm - N/A   Clear